| time (UTC) | temp C | wind direction | speed KPH | gust KPH | rain 1hr cm | rain 24hr cm | rain mn cm | humidity % | barometer mb |
| 20260505004503 | 15 | 137 | 1.6 | 9.7 | 0.00 | 0.00 | 0.00 | 49 | 1009.8 |
| 20260505004003 | 15 | 136 | 3.2 | 9.7 | 0.00 | 0.00 | 0.00 | 48 | 1009.7 |
| 20260505003524 | 15 | 147 | 3.2 | 11.3 | 0.00 | 0.00 | 0.00 | 48 | 1009.4 |
| 20260505003003 | 15 | 157 | 3.2 | 11.3 | 0.00 | 0.00 | 0.00 | 48 | 1009.2 |
| 20260505002503 | 15 | 157 | 1.6 | 14.5 | 0.00 | 0.00 | 0.00 | 48 | 1009.5 |
| 20260505002006 | 15 | 170 | 3.2 | 14.5 | 0.00 | 0.00 | 0.00 | 47 | 1009.5 |
| 20260505001503 | 16 | 169 | 3.2 | 14.5 | 0.00 | 0.00 | 0.00 | 47 | 1009.5 |
| 20260505001003 | 16 | 174 | 4.8 | 12.9 | 0.00 | 0.00 | 0.00 | 47 | 1009.6 |
| 20260505000503 | 16 | 177 | 3.2 | 14.5 | 0.00 | 0.00 | 0.00 | 46 | 1009.6 |
| 20260505000003 | 16 | 172 | 3.2 | 14.5 | 0.00 | 0.00 | 0.00 | 46 | 1009.2 |
| 20260504235524 | 16 | 165 | 3.2 | 11.3 | 0.00 | 0.00 | 0.00 | 46 | 1009.3 |
| 20260504235003 | 16 | 148 | 3.2 | 9.7 | 0.00 | 0.00 | 0.00 | 45 | 1009.2 |
| 20260504234503 | 16 | 150 | 3.2 | 9.7 | 0.00 | 0.00 | 0.00 | 45 | 1009.1 |
| 20260504234003 | 16 | 169 | 3.2 | 14.5 | 0.00 | 0.00 | 0.00 | 45 | 1009.2 |
| 20260504233524 | 16 | 164 | 4.8 | 14.5 | 0.00 | 0.00 | 0.00 | 45 | 1009.2 |
| 20260504233003 | 16 | 166 | 4.8 | 12.9 | 0.00 | 0.00 | 0.00 | 44 | 1009.1 |
| 20260504232503 | 16 | 173 | 4.8 | 14.5 | 0.00 | 0.00 | 0.00 | 44 | 1009.1 |
| 20260504232003 | 17 | 175 | 4.8 | 22.5 | 0.00 | 0.00 | 0.00 | 43 | 1008.9 |
| 20260504231503 | 17 | 177 | 4.8 | 22.5 | 0.00 | 0.00 | 0.00 | 43 | 1009.0 |
| 20260504231003 | 17 | 171 | 6.4 | 20.9 | 0.00 | 0.00 | 0.00 | 43 | 1008.9 |
| 20260504225503 | 17 | 205 | 6.4 | 16.1 | 0.00 | 0.00 | 0.00 | 42 | 1008.8 |
| 20260504225003 | 17 | 208 | 4.8 | 16.1 | 0.00 | 0.00 | 0.00 | 41 | 1008.8 |
| 20260504224024 | 17 | 189 | 6.4 | 17.7 | 0.00 | 0.00 | 0.00 | 41 | 1008.6 |
| 20260504223503 | 18 | 204 | 4.8 | 16.1 | 0.00 | 0.00 | 0.00 | 40 | 1008.7 |
| 20260504223003 | 18 | 179 | 6.4 | 22.5 | 0.00 | 0.00 | 0.00 | 40 | 1008.6 |
| 20260504222503 | 18 | 178 | 8.0 | 22.5 | 0.00 | 0.00 | 0.00 | 39 | 1008.7 |
| 20260504222003 | 18 | 190 | 6.4 | 20.9 | 0.00 | 0.00 | 0.00 | 39 | 1008.6 |
| 20260504221524 | 18 | 187 | 6.4 | 22.5 | 0.00 | 0.00 | 0.00 | 38 | 1008.7 |
| 20260504221003 | 18 | 189 | 6.4 | 22.5 | 0.00 | 0.00 | 0.00 | 37 | 1008.7 |
| 20260504220524 | 18 | 180 | 6.4 | 14.5 | 0.00 | 0.00 | 0.00 | 36 | 1008.4 |
| 20260504220003 | 18 | 176 | 6.4 | 14.5 | 0.00 | 0.00 | 0.00 | 36 | 1008.5 |
| 20260504215503 | 18 | 207 | 6.4 | 17.7 | 0.00 | 0.00 | 0.00 | 37 | 1008.8 |
| 20260504215003 | 18 | 238 | 6.4 | 27.4 | 0.00 | 0.00 | 0.00 | 36 | 1008.8 |
| 20260504214503 | 18 | 228 | 6.4 | 27.4 | 0.00 | 0.00 | 0.00 | 36 | 1008.8 |
| 20260504214003 | 18 | 199 | 4.8 | 17.7 | 0.00 | 0.00 | 0.00 | 38 | 1008.7 |
| 20260504213503 | 18 | 216 | 6.4 | 22.5 | 0.00 | 0.00 | 0.00 | 36 | 1008.8 |
| 20260504213003 | 18 | 224 | 6.4 | 22.5 | 0.00 | 0.00 | 0.00 | 37 | 1008.9 |
| 20260504212503 | 18 | 205 | 6.4 | 17.7 | 0.00 | 0.00 | 0.00 | 37 | 1008.6 |
| 20260504212003 | 18 | 181 | 6.4 | 33.8 | 0.00 | 0.00 | 0.00 | 38 | 1009.0 |
| 20260504211503 | 18 | 195 | 8.0 | 33.8 | 0.00 | 0.00 | 0.00 | 38 | 1009.0 |
| 20260504211003 | 18 | 212 | 6.4 | 24.1 | 0.00 | 0.00 | 0.00 | 37 | 1008.9 |
| 20260504210503 | 18 | 232 | 4.8 | 20.9 | 0.00 | 0.00 | 0.00 | 39 | 1009.0 |
| 20260504210003 | 17 | 229 | 4.8 | 22.5 | 0.00 | 0.00 | 0.00 | 38 | 1009.1 |
| 20260504205503 | 17 | 196 | 6.4 | 27.4 | 0.00 | 0.00 | 0.00 | 38 | 1009.1 |
| 20260504205024 | 17 | 205 | 6.4 | 27.4 | 0.00 | 0.00 | 0.00 | 38 | 1009.2 |
| 20260504204503 | 17 | 226 | 6.4 | 20.9 | 0.00 | 0.00 | 0.00 | 38 | 1009.3 |
| 20260504204003 | 17 | 205 | 6.4 | 20.9 | 0.00 | 0.00 | 0.00 | 38 | 1009.1 |
| 20260504203503 | 18 | 203 | 6.4 | 35.4 | 0.00 | 0.00 | 0.00 | 37 | 1009.3 |
| 20260504203002 | 18 | 225 | 8.0 | 35.4 | 0.00 | 0.00 | 0.00 | 37 | 1009.1 |
| 20260504202503 | 18 | 253 | 4.8 | 25.7 | 0.00 | 0.00 | 0.00 | 38 | 1009.1 |
| 20260504202003 | 18 | 204 | 4.8 | 24.1 | 0.00 | 0.00 | 0.00 | 38 | 1009.3 |
| 20260504201503 | 18 | 216 | 8.0 | 27.4 | 0.00 | 0.00 | 0.00 | 37 | 1009.3 |
| 20260504201003 | 18 | 218 | 8.0 | 27.4 | 0.00 | 0.00 | 0.00 | 38 | 1009.1 |
| 20260504200524 | 18 | 192 | 8.0 | 29.0 | 0.00 | 0.00 | 0.00 | 38 | 1009.3 |
| 20260504200003 | 18 | 190 | 8.0 | 29.0 | 0.00 | 0.00 | 0.00 | 39 | 1009.4 |
| 20260504195503 | 18 | 177 | 6.4 | 20.9 | 0.00 | 0.00 | 0.00 | 38 | 1009.2 |
| 20260504195002 | 18 | 212 | 6.4 | 24.1 | 0.00 | 0.00 | 0.00 | 37 | 1009.4 |
| 20260504194503 | 18 | 252 | 6.4 | 24.1 | 0.00 | 0.00 | 0.00 | 37 | 1009.6 |
| 20260504194003 | 18 | 261 | 6.4 | 17.7 | 0.00 | 0.00 | 0.00 | 38 | 1009.4 |
| 20260504193503 | 18 | 225 | 6.4 | 24.1 | 0.00 | 0.00 | 0.00 | 38 | 1009.4 |
| 20260504193024 | 18 | 220 | 8.0 | 27.4 | 0.00 | 0.00 | 0.00 | 38 | 1009.4 |
| 20260504192503 | 18 | 219 | 9.7 | 27.4 | 0.00 | 0.00 | 0.00 | 38 | 1009.5 |
| 20260504192003 | 18 | 210 | 8.0 | 25.7 | 0.00 | 0.00 | 0.00 | 36 | 1009.7 |
| 20260504191503 | 18 | 213 | 6.4 | 22.5 | 0.00 | 0.00 | 0.00 | 37 | 1009.9 |
| 20260504191003 | 18 | 211 | 8.0 | 24.1 | 0.00 | 0.00 | 0.00 | 38 | 1009.7 |
| 20260504190504 | 18 | 226 | 8.0 | 27.4 | 0.00 | 0.00 | 0.00 | 37 | 1009.6 |
| 20260504190003 | 18 | 230 | 8.0 | 27.4 | 0.00 | 0.00 | 0.00 | 35 | 1009.7 |
| 20260504185503 | 18 | 215 | 6.4 | 25.7 | 0.00 | 0.00 | 0.00 | 37 | 1009.6 |
| 20260504185003 | 18 | 200 | 6.4 | 25.7 | 0.00 | 0.00 | 0.00 | 38 | 1009.7 |
| 20260504184503 | 18 | 182 | 8.0 | 29.0 | 0.00 | 0.00 | 0.00 | 39 | 1009.8 |
| 20260504184024 | 18 | 180 | 8.0 | 29.0 | 0.00 | 0.00 | 0.00 | 38 | 1009.8 |
| 20260504183503 | 17 | 208 | 6.4 | 27.4 | 0.00 | 0.00 | 0.00 | 38 | 1009.9 |
| 20260504183003 | 18 | 209 | 6.4 | 25.7 | 0.00 | 0.00 | 0.00 | 37 | 1009.8 |
| 20260504182503 | 18 | 187 | 6.4 | 22.5 | 0.00 | 0.00 | 0.00 | 37 | 1010.1 |
| 20260504182003 | 18 | 189 | 8.0 | 24.1 | 0.00 | 0.00 | 0.00 | 38 | 1009.7 |
| 20260504181503 | 17 | 196 | 8.0 | 24.1 | 0.00 | 0.00 | 0.00 | 38 | 1009.9 |
| 20260504181003 | 18 | 200 | 6.4 | 24.1 | 0.00 | 0.00 | 0.00 | 37 | 1009.7 |
| 20260504180503 | 17 | 215 | 8.0 | 35.4 | 0.00 | 0.00 | 0.00 | 37 | 1009.9 |
| 20260504180003 | 17 | 203 | 8.0 | 35.4 | 0.00 | 0.00 | 0.00 | 36 | 1010.0 |
| 20260504175503 | 17 | 194 | 8.0 | 27.4 | 0.00 | 0.00 | 0.00 | 35 | 1010.2 |
| 20260504175003 | 18 | 206 | 6.4 | 24.1 | 0.00 | 0.00 | 0.00 | 37 | 1010.1 |
| 20260504174503 | 17 | 213 | 8.0 | 24.1 | 0.00 | 0.00 | 0.00 | 38 | 1010.2 |
| 20260504174003 | 17 | 195 | 6.4 | 24.1 | 0.00 | 0.00 | 0.00 | 39 | 1010.3 |
| 20260504173503 | 17 | 174 | 8.0 | 25.7 | 0.00 | 0.00 | 0.00 | 40 | 1010.2 |
| 20260504173003 | 16 | 160 | 8.0 | 25.7 | 0.00 | 0.00 | 0.00 | 38 | 1010.1 |
| 20260504172524 | 16 | 181 | 8.0 | 24.1 | 0.00 | 0.00 | 0.00 | 37 | 1010.3 |
| 20260504172003 | 17 | 207 | 9.7 | 24.1 | 0.00 | 0.00 | 0.00 | 36 | 1010.4 |
| 20260504171503 | 17 | 191 | 9.7 | 30.6 | 0.00 | 0.00 | 0.00 | 38 | 1010.5 |
| 20260504171003 | 17 | 205 | 8.0 | 30.6 | 0.00 | 0.00 | 0.00 | 39 | 1010.3 |
| 20260504170503 | 17 | 188 | 8.0 | 25.7 | 0.00 | 0.00 | 0.00 | 38 | 1010.8 |
| 20260504151003 | 15 | 212 | 9.7 | 27.4 | 0.00 | 0.00 | 0.00 | 42 | 1011.8 |
| 20260504150503 | 15 | 209 | 8.0 | 24.1 | 0.00 | 0.00 | 0.00 | 38 | 1011.7 |
| 20260504140503 | 12 | 236 | 8.0 | 24.1 | 0.00 | 0.00 | 0.00 | 43 | 1011.9 |
| 20260504130503 | 11 | 238 | 6.4 | 16.1 | 0.00 | 0.00 | 0.00 | 46 | 1012.2 |
| 20260504110503 | 4 | 228 | 1.6 | 9.7 | 0.00 | 0.00 | 0.00 | 67 | 1012.2 |
| 20260504100503 | 1 | 270 | 0.0 | 3.2 | 0.00 | 0.00 | 0.00 | 75 | 1012.1 |
| 20260504082003 | 4 | 338 | 1.6 | 3.2 | 0.00 | 0.00 | 0.00 | 63 | 1012.3 |
| 20260504081503 | 4 | 331 | 1.6 | 3.2 | 0.00 | 0.00 | 0.00 | 63 | 1012.5 |
| 20260504081003 | 4 | 342 | 1.6 | 4.8 | 0.00 | 0.00 | 0.00 | 63 | 1012.5 |
| 20260504080503 | 4 | 350 | 1.6 | 6.4 | 0.00 | 0.00 | 0.00 | 63 | 1012.5 |
| 20260504050503 | 6 | 271 | 3.2 | 11.3 | 0.00 | 0.00 | 0.00 | 57 | 1012.0 |
| 20260504050003 | 6 | 275 | 3.2 | 9.7 | 0.00 | 0.00 | 0.00 | 57 | 1012.0 |
| 20260504045524 | 6 | 263 | 3.2 | 14.5 | 0.00 | 0.00 | 0.00 | 57 | 1012.0 |
| 20260504045003 | 6 | 267 | 3.2 | 14.5 | 0.00 | 0.00 | 0.00 | 58 | 1011.9 |
| 20260504044504 | 6 | 278 | 3.2 | 11.3 | 0.00 | 0.00 | 0.00 | 58 | 1011.8 |
| 20260504044024 | 6 | 287 | 3.2 | 11.3 | 0.00 | 0.00 | 0.00 | 58 | 1011.8 |
| 20260504043503 | 6 | 284 | 1.6 | 9.7 | 0.00 | 0.00 | 0.00 | 58 | 1011.9 |
| 20260504043024 | 6 | 266 | 1.6 | 9.7 | 0.00 | 0.00 | 0.00 | 58 | 1011.8 |
| 20260504042503 | 6 | 277 | 3.2 | 11.3 | 0.00 | 0.00 | 0.00 | 58 | 1011.8 |
| 20260504042003 | 5 | 281 | 3.2 | 11.3 | 0.00 | 0.00 | 0.00 | 59 | 1011.7 |
| 20260504041503 | 5 | 269 | 1.6 | 11.3 | 0.00 | 0.00 | 0.00 | 59 | 1011.7 |
| 20260504041003 | 5 | 291 | 1.6 | 11.3 | 0.00 | 0.00 | 0.00 | 60 | 1011.8 |
| 20260504040524 | 5 | 315 | 1.6 | 6.4 | 0.00 | 0.00 | 0.00 | 60 | 1011.7 |
| 20260504040003 | 5 | 302 | 1.6 | 6.4 | 0.00 | 0.00 | 0.00 | 60 | 1011.6 |
| 20260504035524 | 5 | 299 | 1.6 | 6.4 | 0.00 | 0.00 | 0.00 | 59 | 1011.7 |
| 20260504035003 | 5 | 308 | 1.6 | 6.4 | 0.00 | 0.00 | 0.00 | 58 | 1011.4 |
| 20260504034503 | 5 | 322 | 1.6 | 4.8 | 0.00 | 0.00 | 0.00 | 58 | 1011.6 |
| 20260504034003 | 5 | 325 | 1.6 | 4.8 | 0.00 | 0.00 | 0.00 | 58 | 1011.3 |
| 20260504033503 | 5 | 303 | 1.6 | 4.8 | 0.00 | 0.00 | 0.00 | 57 | 1011.4 |
| 20260504033003 | 6 | 297 | 1.6 | 6.4 | 0.00 | 0.00 | 0.00 | 58 | 1011.3 |
| 20260504032503 | 5 | 307 | 1.6 | 6.4 | 0.00 | 0.00 | 0.00 | 58 | 1011.5 |
| 20260504032003 | 5 | 277 | 1.6 | 6.4 | 0.00 | 0.00 | 0.00 | 59 | 1011.6 |
| 20260504031503 | 5 | 230 | 1.6 | 9.7 | 0.00 | 0.00 | 0.00 | 58 | 1011.7 |
| 20260504031003 | 5 | 252 | 1.6 | 9.7 | 0.00 | 0.00 | 0.00 | 58 | 1011.6 |
| 20260504030503 | 5 | 318 | 0.0 | 3.2 | 0.00 | 0.00 | 0.00 | 58 | 1011.4 |
| 20260504030024 | 5 | 287 | 0.0 | 3.2 | 0.00 | 0.00 | 0.00 | 59 | 1011.5 |
| 20260504025503 | 5 | 279 | 0.0 | 3.2 | 0.00 | 0.00 | 0.00 | 59 | 1011.6 |
| 20260504025003 | 5 | 259 | 0.0 | 3.2 | 0.00 | 0.00 | 0.00 | 59 | 1011.6 |
| 20260504024503 | 5 | 244 | 0.0 | 3.2 | 0.00 | 0.00 | 0.00 | 59 | 1011.6 |
| 20260504024003 | 5 | 243 | 0.0 | 3.2 | 0.00 | 0.00 | 0.00 | 58 | 1011.6 |
| 20260504023503 | 5 | 266 | 0.0 | 4.8 | 0.00 | 0.00 | 0.00 | 58 | 1011.6 |
| 20260504023003 | 5 | 271 | 0.0 | 4.8 | 0.00 | 0.00 | 0.00 | 58 | 1011.6 |
| 20260504022503 | 5 | 239 | 0.0 | 3.2 | 0.00 | 0.00 | 0.00 | 58 | 1011.6 |
| 20260504022003 | 5 | 214 | 0.0 | 3.2 | 0.00 | 0.00 | 0.00 | 57 | 1011.7 |
| 20260504021524 | 5 | 241 | 0.0 | 3.2 | 0.00 | 0.00 | 0.00 | 57 | 1011.7 |
| 20260504021024 | 5 | 241 | 0.0 | 3.2 | 0.00 | 0.00 | 0.00 | 57 | 1011.8 |
| 20260504020503 | 5 | 0 | 0.0 | 0.0 | 0.00 | 0.00 | 0.00 | 57 | 1011.6 |
| 20260504020003 | 5 | 0 | 0.0 | 0.0 | 0.00 | 0.00 | 0.00 | 57 | 1011.6 |
| 20260504015524 | 6 | 250 | 0.0 | 3.2 | 0.00 | 0.00 | 0.00 | 56 | 1011.6 |
| 20260504015003 | 6 | 250 | 0.0 | 4.8 | 0.00 | 0.00 | 0.00 | 56 | 1011.6 |
| 20260504014503 | 6 | 250 | 0.0 | 4.8 | 0.00 | 0.00 | 0.00 | 55 | 1011.6 |
| 20260504014003 | 6 | 112 | 0.0 | 1.6 | 0.00 | 0.00 | 0.00 | 54 | 1011.5 |
| 20260504013524 | 6 | 207 | 0.0 | 3.2 | 0.00 | 0.00 | 0.00 | 53 | 1011.4 |
| 20260504013003 | 6 | 222 | 1.6 | 4.8 | 0.00 | 0.00 | 0.00 | 53 | 1011.2 |
| 20260504012503 | 6 | 226 | 1.6 | 4.8 | 0.00 | 0.00 | 0.00 | 53 | 1011.4 |
| 20260504012003 | 6 | 240 | 0.0 | 3.2 | 0.00 | 0.00 | 0.00 | 52 | 1011.4 |
| 20260504011503 | 6 | 249 | 0.0 | 4.8 | 0.00 | 0.00 | 0.00 | 52 | 1011.5 |
| 20260504011003 | 7 | 253 | 0.0 | 4.8 | 0.00 | 0.00 | 0.00 | 51 | 1011.3 |
| 20260504010503 | 7 | 267 | 0.0 | 3.2 | 0.00 | 0.00 | 0.00 | 51 | 1011.3 |
| 20260504010003 | 7 | 254 | 0.0 | 3.2 | 0.00 | 0.00 | 0.00 | 50 | 1011.2 |
| 20260504005524 | 7 | 239 | 0.0 | 3.2 | 0.00 | 0.00 | 0.00 | 50 | 1011.1 |
| 20260504005003 | 7 | 238 | 1.6 | 11.3 | 0.00 | 0.00 | 0.00 | 50 | 1011.2 |
| 20260504004524 | 7 | 243 | 1.6 | 11.3 | 0.00 | 0.00 | 0.00 | 49 | 1011.0 |